This is the latest recevied weather packets stored in our database for station/object KD4EG. If no packets are shown the sender has not sent any weather packets the latest 10 day(s).
| Time | Temp. | Humidity | Pressure | Rain* | Wind** | Luminosity | Snow |
|---|---|---|---|---|---|---|---|
| 1788195696 | 31.11° C | 54% | 1022.9 hPa | 0 mm | - | 685 W/m² | - |
| 1788195391 | 31.11° C | 58% | 1022.8 hPa | 0 mm | - | 132 W/m² | - |
| 1788195087 | 31.11° C | 57% | 1023 hPa | 0 mm | - | 131 W/m² | - |
| 1788194783 | 31.67° C | 54% | 1023 hPa | 0 mm | - | 143 W/m² | - |
| 1788194479 | 32.22° C | 53% | 1023.1 hPa | 0 mm | - | 669 W/m² | - |
| 1788194174 | 31.67° C | 54% | 1023.2 hPa | 0 mm | - | 670 W/m² | - |
| 1788193869 | 31.11° C | 58% | 1023 hPa | 0 mm | - | 518 W/m² | - |
| 1788193568 | 31.67° C | 57% | 1023.1 hPa | 0 mm | - | 193 W/m² | - |
| 1788193266 | 32.22° C | 56% | 1023.3 hPa | 0 mm | - | 179 W/m² | - |
| 1788192962 | 31.67° C | 59% | 1023.1 hPa | 0 mm | - | 702 W/m² | - |
| 1788192659 | 31.11° C | 57% | 1023.6 hPa | 0 mm | - | 683 W/m² | - |
| 1788192357 | 31.11° C | 58% | 1023.4 hPa | 0 mm | - | 671 W/m² | - |
| 1788192053 | 31.11° C | 58% | 1023.3 hPa | 0 mm | - | 161 W/m² | - |
| 1788191748 | 31.67° C | 58% | 1023.4 hPa | 0 mm | - | 508 W/m² | - |
| 1788191443 | 31.67° C | 58% | 1023.2 hPa | 0 mm | - | 180 W/m² | - |
| 1788191139 | 31.11° C | 58% | 1023.3 hPa | 0 mm | - | 781 W/m² | - |
| 1788190839 | 31.11° C | 61% | 1023.4 hPa | 0 mm | - | 749 W/m² | - |
| 1788190538 | 30.56° C | 61% | 1023.2 hPa | 0 mm | - | 741 W/m² | - |
| 1788190236 | 31.67° C | 62% | 1023.1 hPa | 0 mm | - | 739 W/m² | - |
| 1788189930 | 30.56° C | 65% | 1023.3 hPa | 0 mm | - | 700 W/m² | - |
| 1788189626 | 30° C | 64% | 1023.3 hPa | 0 mm | - | 679 W/m² | - |
| 1788189320 | 30.56° C | 66% | 1023.3 hPa | 0 mm | - | 684 W/m² | - |
| 1788189020 | 29.44° C | 68% | 1023.4 hPa | 0 mm | - | 742 W/m² | - |
| 1788188715 | 30° C | 68% | 1023.6 hPa | 0 mm | - | 644 W/m² | - |
| 1788188411 | 29.44° C | 68% | 1023.5 hPa | 0 mm | - | 597 W/m² | - |
* Rain latest hour (hover to see other rain measurements)
** Current wind speed in m/s (hover to see current wind gust speed)